Location: Silverdale
(47.6506°N, 122.6941°W)
Time: 05:42:31
(UTC+00:00)

Altair - Pass Details

Date: 08 October 2022
Orbit: 1501 x 1682 km, 47.2° (Epoch: 07 December)

Event Time Altitude Azimuth Distance (km) Brightness Sun altitude
Rises 12:16:20 0° 236° (SW) 4,730 - -21.4°
Reaches altitude 10° 12:19:22 10° 234° (SW) 3,772 - -20.9°
Exits shadow 12:22:35 25° 229° (SW) 2,815 8.4 -20.4°
Maximum altitude 12:28:52 67° 155° (SSE) 1,740 7.8 -19.4°
Drops below altitude 10° 12:38:44 10° 76° (ENE) 3,916 10.9 -17.8°
Sets 12:41:57 0° 74° (ENE) 4,919 11.9 -17.2°
